Flag for Austria Weather past 2 weeks in Hollabrunn, Lower Austria, Austria

Now
57 °F

Cool.


Feels Like: 55 °F
Forecast: 57 / 73 °F
Wind: 8 mph from Northwest

Location: Retz

Current Time: Sep 2, 2014 at 12:18:42 PM

Latest Report: Sep 2, 2014 at 11:00 AM


Visibility: N/A

Pressure: 30.01 "Hg

Humidity: 91%

Dew point: 54 °F

Location of HollabrunnLocation

Historic Weather in Hollabrunn — Graph

°F

Hollabrunn temperature yesterday

Maximum temperature yesterday: 58 °F (at 12:00 AM)
Minimum temperature yesterday: 55 °F (at 6:00 AM)
Average temperature yesterday: 56 °F

Past Weeks' High & Low Weather Summary

 TemperatureHumidityPressure
High75 °F (Aug 18, 5:00 PM)100% (Aug 31, 9:00 AM)30.12 "Hg (Aug 31, 9:00 AM)
Low47 °F (Aug 25, 6:00 AM)42% (Aug 18, 1:00 PM)29.67 "Hg (Aug 26, 4:00 PM)
Average60 °F78%29.96 "Hg
* Reported Aug 18 11:00 AM — Sep 2 11:00 AM, Hollabrunn, Weather by CustomWeather, © 2014

Note: Actual official high and low records may vary slightly from our data, if they occured in-between our weather recording intervals... More about our weather records

Advertising

Hollabrunn weather history for previous 24 hours

 ConditionsComfort  
Time TempWeatherWind HumidityBarometerVisibility
11:00 AM
Sep 2
57 °FCool.8 mph91%30.01 "HgN/A
10:00 AM56 °FCool.9 mph92%30.01 "HgN/A
9:00 AM55 °FFog.9 mph94%29.99 "HgN/A
8:00 AM54 °FLight rain. Low clouds.9 mph94%29.98 "Hg2 mi
7:00 AM54 °FLight rain. Low clouds.8 mph93%29.98 "Hg2 mi
6:00 AM54 °FFog.7 mph95%29.98 "HgN/A
5:00 AM55 °FCool.8 mph92%29.98 "HgN/A
4:00 AM54 °FFog.9 mph93%29.98 "HgN/A
3:00 AM54 °FFog.9 mph94%29.98 "HgN/A
2:00 AM54 °FCool.10 mph94%29.98 "HgN/A
1:00 AM55 °FFog.9 mph94%29.98 "HgN/A
12:00 AM55 °FFog.10 mph94%29.98 "HgN/A
11:00 PM
Sep 1
56 °FCool.8 mph94%29.98 "HgN/A
10:00 PM56 °FFog.9 mph93%29.98 "HgN/A
9:00 PM56 °FFog.9 mph93%29.96 "HgN/A
8:00 PM56 °FLight rain. Overcast.9 mph94%29.95 "Hg2 mi
7:00 PM57 °FFog.9 mph94%29.95 "HgN/A
6:00 PM57 °FFog.8 mph93%29.95 "HgN/A
5:00 PM57 °FCool.8 mph93%29.94 "HgN/A
4:00 PM57 °FFog.7 mph94%29.94 "HgN/A
3:00 PM57 °FFog.6 mph92%29.93 "HgN/A
2:00 PM57 °FLight rain. Overcast.6 mph91%29.93 "Hg6 mi
1:00 PM57 °FFog.6 mph92%29.92 "HgN/A
12:00 PM57 °FFog.6 mph93%29.92 "HgN/A
Weather by CustomWeather, © 2014

See weather overviewHow to use our weather pages